Flag for Sweden Weather past 2 weeks in Södertälje, Sweden

Now
77 °F

Sunny.


Feels Like: 79 °F
Forecast: 61 / 81 °F
Wind: 3 mph from North

Location: Stockholm / Arlanda

Current Time: Jul 23, 2014 at 10:40:55 AM

Latest Report: Jul 23, 2014 at 9:50 AM


Visibility: 10 mi

Pressure: 30.30 "Hg

Humidity: 47%

Dew point: 55 °F

Location of SödertäljeLocation

Historic Weather in Södertälje — Graph

°F

Södertälje temperature yesterday

Maximum temperature yesterday: 82 °F (at 2:50 PM)
Minimum temperature yesterday: 57 °F (at 2:50 AM)
Average temperature yesterday: 69 °F

Past Weeks' High & Low Weather Summary

 TemperatureHumidityPressure
High84 °F (Jul 10, 1:20 PM)100% (Jul 12, 2:20 AM)30.30 "Hg (Jul 12, 2:20 AM)
Low46 °F (Jul 12, 2:20 AM)32% (Jul 10, 12:50 PM)29.71 "Hg (Jul 13, 7:50 PM)
Average67 °F71%30.04 "Hg
* Reported Jul 8 7:20 AM — Jul 23 7:20 AM, Södertälje, Weather by CustomWeather, © 2014

Note: Actual official high and low records may vary slightly from our data, if they occured in-between our weather recording intervals... More about our weather records

Advertising

Södertälje weather history for previous 24 hours

 ConditionsComfort  
Time TempWeatherWind HumidityBarometerVisibility
7:20 AM
Jul 23
64 °FSunny.3 mph83%30.30 "Hg10 mi
6:50 AM63 °FSunny.3 mph83%30.30 "Hg10 mi
6:20 AM59 °FSunny.2 mph88%30.30 "Hg10 mi
5:50 AM54 °FSunny.No wind94%30.30 "Hg10 mi
5:20 AM54 °FSunny.No wind94%30.30 "Hg10 mi
4:50 AM54 °FLight fog.1 mph94%30.30 "HgN/A
4:20 AM52 °FLight fog.1 mph100%30.30 "HgN/A
3:50 AM54 °FLight fog.No wind94%30.30 "HgN/A
3:20 AM54 °FClear.1 mph94%30.30 "Hg10 mi
2:50 AM54 °FClear.2 mph94%30.30 "Hg10 mi
2:20 AM54 °FClear.3 mph94%30.30 "Hg10 mi
1:50 AM54 °FClear.2 mph100%30.30 "Hg10 mi
6:50 PM
Jul 22
79 °FSunny.9 mph37%30.24 "Hg10 mi
6:20 PM81 °FSunny.9 mph37%30.24 "Hg10 mi
5:50 PM81 °FSunny.10 mph39%30.24 "Hg10 mi
5:20 PM81 °FSunny.9 mph39%30.24 "Hg10 mi
4:50 PM81 °FPassing clouds.7 mph37%30.24 "HgN/A
4:20 PM82 °FPassing clouds.7 mph35%30.24 "HgN/A
3:50 PM81 °FSunny.7 mph39%30.24 "Hg10 mi
3:20 PM81 °FSunny.8 mph37%30.24 "Hg10 mi
2:50 PM82 °FSunny.9 mph32%30.24 "Hg10 mi
2:20 PM81 °FPassing clouds.8 mph37%30.24 "HgN/A
1:50 PM79 °FPassing clouds.8 mph45%30.24 "HgN/A
1:20 PM81 °FPassing clouds.6 mph39%30.24 "HgN/A
12:50 PM79 °FScattered clouds.6 mph51%30.24 "HgN/A
12:20 PM77 °FScattered clouds.5 mph57%30.24 "HgN/A
11:50 AM77 °FPassing clouds.5 mph61%30.24 "HgN/A
11:20 AM75 °FSunny.3 mph65%30.24 "Hg10 mi
10:50 AM75 °FPassing clouds.3 mph69%30.24 "HgN/A
10:20 AM72 °FPassing clouds.3 mph83%30.24 "HgN/A
Weather by CustomWeather, © 2014

See weather overviewHow to use our weather pages